This is the latest recevied weather packets stored in our database for station/object KK7KHO. If no packets are shown the sender has not sent any weather packets the latest 10 day(s).
| Time | Temp. | Humidity | Pressure | Rain* | Wind** | Luminosity | Snow |
|---|---|---|---|---|---|---|---|
| 1777798074 | 11.67° C | 87% | 1013.8 hPa | 0 mm | - | 0 W/m² | - |
| 1777797772 | 11.67° C | 86% | 1013.9 hPa | 0 mm | - | 0 W/m² | - |
| 1777797469 | 12.22° C | 85% | 1013.9 hPa | 0 mm | - | 0 W/m² | - |
| 1777797166 | 12.22° C | 85% | 1013.7 hPa | 0 mm | - | 0 W/m² | - |
| 1777796863 | 11.67° C | 86% | 1013.8 hPa | 0 mm | - | 0 W/m² | - |
| 1777796560 | 12.22° C | 85% | 1013.9 hPa | 0 mm | - | 0 W/m² | - |
| 1777796259 | 12.22° C | 85% | 1013.9 hPa | 0 mm | - | 0 W/m² | - |
| 1777795957 | 12.22° C | 85% | 1014.1 hPa | 0 mm | - | 0 W/m² | - |
| 1777795652 | 12.22° C | 84% | 1014 hPa | 0 mm | - | 0 W/m² | - |
| 1777795350 | 12.78° C | 83% | 1014 hPa | 0 mm | - | 0 W/m² | - |
| 1777795046 | 12.78° C | 82% | 1013.9 hPa | 0 mm | - | 0 W/m² | - |
| 1777794743 | 12.78° C | 81% | 1013.9 hPa | 0 mm | - | 0 W/m² | - |
| 1777794438 | 13.33° C | 81% | 1013.9 hPa | 0 mm | - | 0 W/m² | - |
| 1777794134 | 13.33° C | 80% | 1014 hPa | 0 mm | - | 0 W/m² | - |
| 1777793830 | 13.33° C | 80% | 1013.8 hPa | 0 mm | - | 0 W/m² | - |
| 1777793529 | 13.33° C | 79% | 1014 hPa | 0 mm | - | 0 W/m² | - |
| 1777793226 | 13.33° C | 81% | 1014 hPa | 0 mm | - | 0 W/m² | - |
| 1777792923 | 12.78° C | 81% | 1014 hPa | 0 mm | - | 0 W/m² | - |
| 1777792620 | 12.78° C | 82% | 1013.9 hPa | 0 mm | - | 0 W/m² | - |
| 1777792316 | 12.78° C | 82% | 1013.8 hPa | 0 mm | - | 0 W/m² | - |
| 1777792013 | 13.33° C | 81% | 1013.7 hPa | 0 mm | - | 0 W/m² | - |
| 1777791712 | 13.33° C | 81% | 1013.6 hPa | 0 mm | - | 0 W/m² | - |
| 1777791408 | 13.89° C | 79% | 1013.8 hPa | 0 mm | - | 0 W/m² | - |
| 1777791106 | 13.33° C | 79% | 1013.8 hPa | 0 mm | - | 0 W/m² | - |
| 1777790803 | 13.33° C | 80% | 1013.8 hPa | 0 mm | - | 0 W/m² | - |
* Rain latest hour (hover to see other rain measurements)
** Current wind speed in m/s (hover to see current wind gust speed)